Location: Huisseau
(47.5933°N, 1.4533°E)
Time: 04:59:55
(UTC+00:00)

Tiangong - Visible Passes

Search period start: 18 January 2026 00:00
Search period end: 28 January 2026 00:00
Orbit: 378 x 394 km, 41.5° (Epoch: 17 January)

Date Brightness Start Highest point End Pass type
(mag) Time Alt. Az. Time Alt. Az. Time Alt. Az.
18 Jan 0.5 06:47:08 10° SSW 06:49:29 19° SSE 06:51:52 10° ESE visible
19 Jan 0.7 05:48:34 10° SSW 05:50:25 15° SSE 05:52:16 10° ESE visible
20 Jan 0.0 06:24:54 10° SW 06:27:31 23° S 06:30:08 10° ESE visible
21 Jan 0.0 05:27:47 18° S 05:28:19 19° SSE 05:30:42 10° ESE visible
22 Jan -0.4 06:03:33 16° SW 06:05:24 26° S 06:08:09 10° ESE visible
23 Jan 0.2 05:06:59 21° SE 05:06:59 21° SE 05:08:44 10° ESE visible
23 Jan -0.3 06:39:49 10° WSW 06:42:30 25° S 06:45:11 10° SE visible
24 Jan -0.6 05:42:34 25° SSW 05:43:10 27° S 05:45:55 10° ESE visible
25 Jan 0.9 04:45:52 14° SE 04:45:52 14° SE 04:46:32 10° ESE visible
25 Jan -0.2 06:18:05 12° WSW 06:20:10 21° SSW 06:22:39 10° SE visible
26 Jan -0.2 05:21:21 23° S 05:21:21 23° S 05:23:27 10° SE visible
27 Jan 0.0 05:56:48 15° SW 05:57:39 16° SSW 05:59:45 10° SSE visible
